Temperature
15 16 17 17 17 17 16 15 14 15 15 15 15 15 15 16 16 16 16 15 15 15 16 16 15 15 15 15 15 14 14 14 14 14 14 14 13 13 13 13 13 13 13 13
15 16 16 16 17 17 16 16 15 15 15 15 15 15 15 15 15 15 15 15 15 15 15 15 15 15 15 15 14 14 14 14 14 13 13 13 13 13 13 13 12 12 12 12
13 15 15 15 16 16 15 15 15 14 14 14 14 14 14 15 15 15 15 15 15 15 15 15 15 15 15 14 14 13 13 13 13 13 13 13 12 12 12 12 12 12 12 12
12 14 14 15 15 15 15 14 14 14 14 14 14 14 15 15 15 15 15 15 15 15 15 15 14 14 14 14 13 13 13 13 13 13 13 12 12 12 12 12 12 12 12 11
11 13 13 14 15 15 14 14 13 13 13 13 14 14 14 14 15 15 15 15 14 14 15 14 14 14 13 13 13 13 13 12 12 12 12 12 12 12 12 11 11 11 11 11
11 13 13 14 15 15 14 13 13 13 13 13 13 11 12 14 14 14 14 14 14 14 14 14 14 13 13 13 13 12 12 12 12 12 12 12 12 11 11 11 11 11 11 11
11 12 12 13 14 15 13 13 13 13 13 13 12 12 13 13 13 14 14 13 13 13 13 13 13 13 13 12 12 12 12 12 12 12 11 11 11 11 11 11 11 10 10 10
10 11 12 13 13 13 12 13 14 13 13 13 13 13 13 13 13 13 13 13 13 13 13 13 12 12 12 12 12 12 11 11 11 11 11 11 11 11 10 10 10 10 10 10
11 11 12 14 14 14 14 13 13 13 13 13 13 12 12 12 12 12 12 12 12 12 12 12 12 11 11 11 11 11 11 11 11 11 11 11 10 10 10 10 9 9 9 9
10 11 12 13 14 14 14 13 13 13 13 13 12 12 12 12 11 11 11 11 11 11 11 11 11 11 11 11 10 10 11 11 10 10 10 10 10 10 9 9 9 9 8 8
10 11 12 12 13 13 13 13 13 13 12 12 12 11 11 11 11 11 11 11 10 10 10 10 10 10 10 10 10 10 10 10 10 10 10 10 9 9 9 9 9 8 8 8
10 11 11 12 13 13 13 12 12 12 12 11 11 11 11 10 10 10 10 10 10 10 10 10 10 9 9 9 9 9 9 9 9 9 9 9 9 9 9 8 8 8 8 8
13 13 13 12 12 12 12 12 11 11 11 11 11 11 10 10 10 10 9 9 9 9 9 9 9 9 9 9 9 9 9 8 8 9 9 8 8 8 8 8 8 7 7 7
12 12 11 11 11 12 11 11 11 11 10 10 10 10 10 9 9 9 9 9 9 9 9 9 8 8 8 8 8 8 8 8 8 8 8 8 8 8 7 7 7 7 7 6
12 12 12 11 11 11 11 10 10 10 10 9 9 9 9 9 9 9 8 8 8 8 8 8 8 8 8 8 8 8 8 8 7 7 7 7 7 7 7 7 6 6 6 6
11 11 11 11 10 10 10 10 9 9 9 9 9 9 8 8 8 8 8 8 8 8 8 8 8 7 7 7 7 7 7 7 7 7 7 7 6 6 6 6 6 6 6 5
10 10 10 10 10 10 9 9 9 9 9 8 8 8 8 8 8 8 7 7 7 7 7 7 7 7 7 7 7 6 6 6 6 6 6 6 6 6 6 5 5 5 5 5
11 10 10 10 9 9 9 9 8 8 8 8 8 8 7 7 7 7 7 7 7 7 7 7 6 6 6 6 6 6 6 6 6 6 6 6 5 5 5 5 5 4 4 4
10 10 9 9 9 9 8 8 8 8 8 8 7 7 7 7 7 6 6 6 6 6 6 6 6 6 6 6 6 6 6 5 5 5 5 5 5 5 4 4 4 4 3 3
9 9 9 9 8 8 8 8 8 8 7 7 7 7 6 6 6 6 6 6 6 6 6 5 5 5 5 5 5 5 5 5 5 5 4 4 4 4 4 4 3 3 3 3
8 8 8 8 8 8 8 8 7 7 7 7 6 6 6 6 6 6 5 5 5 5 5 5 5 5 5 5 5 5 5 4 4 4 4 4 4 3 3 3 3 3 2 2
8 8 8 8 7 7 7 7 7 6 6 6 6 6 5 5 5 5 5 5 5 5 5 5 4 4 4 4 4 4 4 4 4 4 3 3 3 3 3 2 2 2 2 2
8 8 7 7 7 7 7 6 6 6 6 6 5 5 5 5 5 5 4 4 4 4 4 4 4 4 4 4 4 4 3 3 3 3 3 3 2 2 2 2 2 2 1 1
7 7 7 7 6 6 6 6 6 6 5 5 5 5 5 4 4 4 4 4 4 4 4 4 3 3 3 3 3 3 3 3 2 2 2 2 2 1 1 1 1 1 1 1
7 6 6 6 6 6 6 6 5 5 5 5 4 4 4 4 4 4 4 4 3 3 3 3 3 3 3 2 2 2 2 2 2 2 1 1 1 1 1 1 1 0 0 0
6 6 6 6 6 6 5 5 5 5 4 4 4 4 4 4 3 3 3 3 3 3 3 2 2 2 2 2 2 2 2 1 1 1 1 1 1 1 0 0 0 -0 -0 -0
6 5 5 5 5 5 5 5 4 4 4 4 3 3 3 3 3 3 3 3 2 2 2 2 2 2 2 1 1 1 1 1 1 1 1 0 0 0 0 -0 -0 -0 -1 -1
Wind_Speed
7 7 5 5 6 5 4 6 6 6 6 6 5 4 3 1 1 2 2 2 2 3 3 3 3 2 2 2 2 3 4 4 4 4 3 3 3 3 4 4 5 5 5 5
5 6 5 5 6 5 4 4 5 4 5 5 2 1 1 1 1 1 1 2 3 4 3 3 3 3 3 2 2 3 4 5 4 4 3 3 3 3 3 3 4 4 4 5
5 6 3 4 4 3 1 0 3 5 5 2 0 1 2 2 1 2 2 2 3 4 4 5 4 4 4 3 2 3 4 5 4 5 4 4 4 3 3 3 3 4 5 5
1 2 4 5 2 1 2 0 1 1 1 2 3 4 3 2 3 2 2 2 3 3 3 4 3 3 3 2 2 2 3 4 4 5 5 4 4 4 4 3 3 4 5 5
2 2 5 4 2 1 2 2 1 1 0 1 0 2 3 3 2 2 3 3 3 3 3 3 3 3 3 2 1 1 3 4 4 5 5 4 4 4 3 3 2 3 3 4
3 3 5 5 4 2 2 2 3 1 2 0 2 1 4 5 3 2 3 2 2 2 1 1 2 2 3 2 2 3 4 4 4 4 5 5 5 4 3 3 3 3 3 4
4 4 6 6 4 2 2 5 2 2 2 1 2 5 5 3 2 1 2 2 1 0 1 2 2 3 3 2 3 4 3 3 3 4 5 5 4 3 3 3 2 2 2 2
4 4 7 4 1 3 5 2 1 2 2 1 1 2 2 1 1 1 2 2 1 1 1 2 1 3 2 3 4 2 1 2 2 3 4 3 4 3 3 3 2 2 1 2
6 6 5 3 3 3 3 2 2 2 2 2 1 2 2 2 1 1 1 2 1 0 1 2 1 1 2 3 2 1 1 2 2 3 3 3 4 4 3 2 2 2 2 2
2 4 4 3 2 2 3 3 3 3 3 2 2 3 2 2 2 2 2 2 1 1 1 3 3 1 2 2 1 1 1 2 2 2 2 2 3 3 3 3 3 2 2 3
3 5 3 4 3 3 1 1 0 1 1 3 3 2 2 2 2 2 2 2 1 1 2 3 3 2 2 1 1 1 1 1 1 2 2 2 2 2 4 4 5 5 4 4
7 8 5 7 6 4 2 2 2 1 1 2 2 3 2 2 2 2 2 1 1 1 2 3 3 2 2 2 0 1 1 1 1 2 2 2 2 0 1 1 2 3 3 2
7 6 5 5 4 4 3 3 3 2 2 2 2 2 1 2 2 2 2 2 2 2 2 2 2 2 2 2 1 1 2 2 2 2 2 2 3 3 1 2 3 1 0 1
4 2 2 4 4 3 3 2 1 0 1 2 2 1 1 1 2 2 2 3 2 2 2 2 1 2 3 1 1 1 1 1 1 2 2 3 3 3 3 3 1 1 2 1
4 4 5 4 3 3 2 2 1 1 2 2 2 2 2 2 2 3 3 2 1 1 2 1 2 3 3 1 1 1 1 1 1 1 2 2 2 2 2 2 2 1 1 1
4 3 3 3 4 3 2 2 3 4 3 3 2 3 3 3 2 2 2 1 1 2 2 2 2 3 2 1 1 1 1 1 1 1 2 1 2 2 2 2 2 1 1 1
3 3 4 4 4 4 4 4 4 4 4 3 4 3 2 1 1 2 2 2 2 2 3 3 3 2 1 1 1 1 1 1 1 2 2 2 2 2 2 2 2 1 1 1
6 7 7 6 5 5 4 4 4 4 4 4 4 3 3 3 3 4 3 2 1 1 2 3 3 2 1 1 1 1 1 1 1 2 2 2 2 2 2 2 2 2 1 1
4 5 5 5 5 5 5 4 4 4 4 3 3 3 4 4 4 4 2 1 1 2 4 3 2 1 1 1 1 1 2 2 1 1 2 3 2 2 2 2 2 2 1 1
2 2 3 3 3 3 4 3 3 3 3 3 3 3 3 3 3 3 2 2 3 3 3 2 1 1 1 1 1 1 2 2 2 2 2 2 2 2 2 2 2 2 1 1
3 2 2 2 3 3 3 3 3 3 3 3 4 4 4 3 3 3 2 2 3 2 2 1 1 1 1 1 1 1 2 2 2 2 3 3 2 2 2 2 2 2 2 1
3 3 3 3 2 2 2 2 2 3 3 3 3 3 2 2 2 2 2 3 3 2 1 1 1 2 2 1 1 2 2 2 2 2 3 3 3 3 2 2 2 2 1 1
3 3 3 3 3 3 2 2 3 3 3 4 4 4 3 3 3 2 2 3 2 3 1 2 2 2 2 2 2 2 2 2 2 2 3 3 3 3 3 2 2 2 2 1
2 2 2 2 1 1 2 3 3 3 3 3 3 4 3 2 2 2 2 3 3 2 1 2 2 2 2 2 2 2 2 2 2 2 2 2 2 3 3 2 2 2 2 2
2 2 2 1 2 2 2 2 1 1 1 1 1 2 2 3 3 2 2 2 3 2 1 2 2 2 2 2 2 2 2 2 3 3 3 3 2 2 2 2 2 2 2 2
2 2 2 3 3 2 2 2 1 1 1 1 1 1 1 1 2 2 2 2 2 2 2 1 1 2 2 2 1 2 2 2 1 2 3 3 3 2 2 2 2 2 2 2
2 1 1 1 1 1 2 2 2 2 2 2 2 2 1 1 2 2 2 2 2 2 1 1 1 2 2 2 2 1 1 2 2 2 2 2 2 2 2 2 2 2 2 2
Wind_Direction
249 259 249 249 264 261 218 199 202 229 226 241 239 226 219 196 138 117 127 162 184 196 208 201 200 212 213 209 198 187 178 185 201 203 198 195 196 204 202 198 201 203 201 205
288 288 273 265 266 254 242 218 208 213 244 259 252 140 127 145 119 113 174 201 211 213 215 217 213 212 220 224 213 192 194 204 206 197 194 190 196 204 205 207 208 201 206 209
278 296 323 278 261 219 188 217 186 206 231 242 92 202 200 189 184 237 246 229 220 219 220 227 227 214 211 220 222 206 209 211 205 200 200 203 201 193 201 212 211 207 213 210
247 357 242 246 304 142 148 98 129 151 218 217 218 229 208 190 196 231 256 262 248 231 219 224 220 213 215 200 197 207 213 212 208 204 203 200 192 195 205 209 209 215 216 214
154 231 270 287 307 167 180 263 311 124 124 317 100 26 332 302 266 243 250 251 244 236 221 210 203 194 173 187 198 200 220 223 211 200 197 194 197 200 203 198 207 218 217 215
157 199 240 247 265 260 133 246 283 131 139 224 67 10 277 297 307 318 314 297 265 257 242 217 224 186 163 193 201 226 237 235 222 201 194 198 206 204 197 194 207 211 227 223
188 222 257 260 289 63 171 241 259 160 150 140 197 222 242 278 299 317 322 308 302 296 267 253 227 167 174 203 231 238 237 232 220 208 204 204 202 196 191 195 199 205 232 246
175 210 251 271 70 169 217 246 208 181 180 182 247 271 273 288 303 338 347 335 332 14 317 303 215 157 172 232 252 251 231 228 229 220 211 202 192 195 190 182 191 212 234 274
193 214 242 241 201 211 183 191 215 198 223 194 215 268 271 273 279 295 309 305 319 334 327 325 305 192 202 250 258 252 236 239 235 228 215 195 189 190 188 183 191 215 218 242
242 260 259 253 221 236 207 195 219 215 212 203 227 229 240 262 278 296 292 267 284 337 323 308 308 298 251 258 248 227 253 263 248 213 210 202 190 185 186 194 200 212 223 238
253 263 284 278 253 226 220 202 199 245 228 194 190 236 234 247 263 275 284 276 264 252 272 290 303 311 306 300 189 184 253 269 256 215 198 207 205 205 206 213 205 204 214 217
235 234 220 247 248 226 205 222 213 189 238 235 203 209 233 255 264 263 262 261 249 265 280 293 299 298 312 328 213 177 247 254 242 221 207 197 187 309 322 248 238 220 213 212
230 239 228 241 245 236 216 219 219 196 197 230 243 216 222 268 268 267 273 264 236 244 265 277 280 281 295 319 326 241 232 230 229 212 201 197 189 180 224 6 39 57 124 234
204 179 234 250 246 238 222 219 208 208 232 217 236 240 234 268 286 287 274 263 256 251 260 259 256 279 288 297 305 285 248 230 210 203 203 199 198 198 194 184 179 351 5 17
221 205 215 232 233 235 216 187 189 255 250 256 245 236 237 248 256 261 258 254 271 289 271 245 249 277 293 292 191 209 225 226 204 193 188 191 185 176 174 172 170 168 26 12
232 223 200 198 213 221 215 209 225 244 249 253 252 241 242 235 238 256 261 235 233 261 260 253 248 268 286 270 179 197 220 210 158 147 151 145 142 144 148 146 147 149 164 194
201 225 219 217 221 223 225 227 225 231 233 231 238 239 236 232 250 258 262 251 230 239 245 243 252 274 281 217 179 201 184 182 138 119 144 151 151 156 159 153 157 160 182 175
211 214 211 206 209 220 230 230 228 233 235 240 238 222 218 220 228 239 245 246 272 293 275 254 249 259 243 212 201 186 170 158 145 147 149 149 151 153 150 149 151 144 134 122
222 213 212 209 209 214 224 231 241 244 242 226 212 215 223 222 224 232 233 209 200 260 276 270 240 182 205 233 144 148 156 146 133 134 139 133 124 129 137 144 152 153 144 129
224 217 219 221 218 221 231 241 250 247 233 210 203 214 236 237 221 217 214 222 229 237 245 246 198 181 213 220 146 146 154 152 150 146 135 133 139 137 138 143 147 154 151 146
231 235 235 233 237 239 226 218 216 229 227 205 202 214 227 240 222 199 197 236 264 251 227 216 180 202 214 190 145 139 148 153 154 155 154 153 151 148 148 148 146 142 145 144
227 225 231 227 225 246 241 219 209 213 214 211 210 207 210 227 225 221 224 229 233 220 202 220 209 199 184 147 123 127 133 142 152 154 158 157 157 160 160 157 155 145 142 147
228 228 223 218 214 223 237 226 211 203 209 210 207 206 211 219 212 199 241 252 224 217 209 219 211 195 171 135 133 136 140 147 154 160 163 162 164 165 162 159 157 152 149 146
225 228 229 225 196 183 214 236 223 213 214 214 215 211 203 207 237 237 223 223 215 202 194 201 183 168 139 120 136 145 152 154 156 157 153 152 155 153 152 155 157 161 161 156
221 222 208 185 204 227 223 213 203 211 204 234 240 225 208 197 207 223 207 194 191 170 164 187 169 139 108 121 140 150 159 164 160 155 154 153 156 156 156 161 166 169 172 180
222 219 217 220 226 221 199 183 205 226 220 250 268 244 222 186 167 170 172 173 167 152 137 147 148 131 118 131 141 147 153 162 160 157 155 156 157 158 159 162 166 174 180 188
221 211 212 265 278 202 183 189 206 222 217 213 239 246 218 188 168 163 157 155 155 149 147 148 141 138 137 141 144 145 150 158 161 161 161 161 162 167 172 170 176 184 184 183
Height
1500 1496 1495 1494 1493 1491 1495 1499 1505 1501 1499 1495 1491 1490 1489 1489 1488 1488 1489 1489 1489 1489 1488 1488 1489 1489 1489 1490 1490 1491 1492 1492 1492 1493 1494 1495 1496 1497 1497 1498 1499 1500 1501 1501
1499 1494 1493 1493 1490 1489 1490 1491 1495 1495 1496 1490 1489 1488 1489 1489 1488 1488 1488 1488 1487 1487 1487 1486 1486 1486 1487 1487 1487 1488 1488 1489 1490 1490 1491 1492 1492 1493 1494 1494 1495 1496 1496 1497
1506 1498 1495 1499 1490 1489 1490 1489 1491 1495 1493 1489 1489 1488 1488 1488 1488 1487 1487 1486 1486 1485 1485 1484 1484 1484 1484 1484 1485 1485 1485 1486 1486 1487 1488 1488 1489 1490 1490 1491 1491 1492 1492 1492
1507 1503 1507 1497 1486 1485 1487 1488 1488 1488 1488 1487 1486 1486 1486 1487 1486 1486 1485 1484 1483 1483 1482 1482 1482 1482 1482 1482 1482 1482 1482 1482 1483 1484 1484 1485 1485 1486 1486 1487 1487 1488 1488 1488
1509 1508 1502 1492 1486 1485 1488 1490 1487 1487 1486 1485 1484 1484 1485 1485 1484 1484 1483 1482 1481 1481 1480 1479 1479 1479 1479 1479 1479 1479 1479 1479 1479 1480 1480 1481 1481 1482 1482 1483 1483 1483 1484 1484
1507 1506 1505 1492 1484 1482 1486 1492 1486 1484 1484 1484 1484 1488 1486 1484 1483 1482 1481 1480 1479 1478 1477 1476 1476 1476 1476 1475 1475 1475 1475 1476 1476 1477 1477 1477 1477 1478 1479 1479 1479 1479 1479 1480
1504 1504 1497 1486 1482 1482 1494 1492 1484 1483 1482 1483 1483 1484 1483 1481 1480 1480 1479 1478 1477 1476 1475 1474 1474 1473 1473 1472 1472 1472 1472 1472 1473 1473 1473 1474 1474 1475 1475 1475 1475 1475 1475 1475
1502 1504 1499 1482 1482 1485 1486 1482 1481 1481 1481 1481 1481 1480 1479 1479 1478 1477 1476 1475 1474 1473 1472 1471 1471 1471 1470 1470 1470 1470 1470 1469 1469 1470 1470 1470 1471 1471 1471 1471 1471 1471 1471 1471
1491 1491 1482 1479 1479 1480 1480 1480 1480 1479 1479 1479 1479 1478 1477 1476 1475 1474 1473 1473 1472 1471 1470 1469 1468 1468 1467 1467 1467 1467 1466 1466 1466 1466 1466 1467 1467 1467 1467 1467 1467 1467 1467 1467
1485 1481 1479 1478 1477 1478 1478 1478 1478 1477 1477 1477 1476 1475 1475 1474 1473 1472 1471 1470 1469 1468 1467 1466 1466 1465 1465 1464 1464 1464 1463 1463 1463 1463 1463 1463 1463 1463 1463 1463 1463 1463 1463 1463
1483 1479 1477 1476 1475 1475 1475 1475 1475 1475 1474 1474 1473 1472 1472 1471 1470 1469 1468 1467 1466 1466 1465 1464 1463 1462 1462 1461 1461 1461 1460 1460 1459 1459 1459 1459 1459 1460 1460 1460 1460 1460 1459 1459
1479 1474 1474 1473 1472 1472 1472 1472 1472 1471 1470 1471 1470 1469 1468 1468 1467 1466 1465 1464 1464 1463 1462 1460 1460 1459 1459 1458 1458 1457 1456 1456 1456 1456 1456 1455 1456 1456 1456 1457 1457 1457 1457 1456
1469 1469 1469 1469 1469 1469 1469 1469 1468 1468 1467 1467 1467 1466 1465 1465 1464 1463 1462 1462 1461 1460 1459 1458 1457 1457 1456 1455 1455 1454 1453 1453 1453 1452 1452 1452 1452 1452 1452 1453 1453 1453 1453 1453
1466 1466 1466 1466 1465 1465 1465 1465 1465 1465 1464 1464 1464 1463 1462 1462 1461 1460 1459 1459 1458 1457 1456 1455 1454 1454 1453 1453 1452 1451 1451 1450 1450 1449 1449 1449 1449 1449 1449 1449 1449 1449 1450 1450
1462 1462 1462 1462 1462 1462 1462 1462 1461 1461 1460 1460 1460 1459 1459 1458 1457 1456 1456 1456 1455 1454 1453 1452 1452 1451 1451 1450 1449 1448 1448 1447 1447 1446 1446 1446 1446 1446 1446 1446 1446 1446 1446 1446
1458 1458 1458 1458 1458 1458 1458 1457 1457 1456 1456 1456 1456 1455 1455 1454 1454 1453 1452 1452 1452 1450 1450 1449 1449 1448 1448 1447 1446 1445 1445 1444 1444 1443 1443 1443 1443 1443 1443 1443 1443 1443 1443 1443
1454 1453 1454 1454 1454 1454 1454 1453 1453 1453 1452 1452 1452 1451 1451 1450 1450 1449 1449 1448 1448 1447 1447 1446 1446 1445 1445 1444 1444 1443 1442 1442 1441 1441 1441 1441 1441 1441 1441 1441 1441 1441 1441 1441
1449 1449 1449 1449 1449 1449 1449 1449 1449 1449 1448 1448 1448 1447 1447 1446 1445 1445 1445 1445 1445 1444 1443 1443 1443 1442 1442 1442 1441 1440 1440 1439 1439 1439 1438 1439 1439 1439 1439 1439 1439 1439 1439 1439
1445 1445 1445 1445 1445 1445 1445 1444 1444 1444 1444 1444 1443 1443 1442 1442 1441 1441 1441 1441 1440 1440 1440 1440 1440 1439 1439 1439 1439 1438 1438 1437 1437 1437 1437 1437 1437 1437 1437 1437 1437 1437 1437 1437
1440 1440 1440 1440 1440 1440 1440 1439 1439 1439 1439 1439 1439 1439 1438 1438 1438 1438 1438 1437 1437 1437 1437 1437 1437 1436 1436 1436 1436 1435 1435 1435 1435 1434 1434 1434 1435 1435 1435 1435 1435 1435 1435 1435
1436 1436 1436 1436 1436 1436 1435 1435 1435 1434 1434 1435 1435 1434 1434 1434 1434 1434 1434 1433 1434 1434 1434 1434 1434 1434 1434 1433 1433 1433 1432 1432 1432 1432 1432 1432 1432 1432 1433 1433 1433 1433 1433 1433
1433 1432 1432 1432 1432 1431 1431 1431 1431 1430 1430 1430 1430 1430 1430 1430 1430 1431 1431 1431 1431 1431 1431 1431 1431 1431 1431 1431 1430 1430 1430 1430 1430 1430 1430 1430 1430 1430 1431 1431 1431 1431 1432 1432
1430 1429 1429 1428 1428 1428 1428 1428 1427 1427 1426 1426 1426 1426 1426 1427 1427 1427 1427 1428 1428 1428 1428 1428 1428 1428 1428 1428 1427 1427 1427 1427 1427 1427 1427 1428 1428 1428 1428 1429 1429 1429 1429 1429
1427 1426 1426 1425 1425 1424 1423 1423 1424 1423 1423 1423 1423 1423 1423 1423 1424 1424 1424 1424 1425 1425 1425 1425 1425 1425 1425 1425 1425 1425 1425 1425 1425 1425 1425 1425 1425 1426 1426 1426 1427 1427 1427 1427
1424 1423 1422 1422 1421 1420 1420 1421 1420 1420 1420 1420 1420 1420 1421 1421 1421 1421 1421 1421 1422 1422 1422 1422 1422 1422 1422 1422 1422 1422 1422 1422 1423 1422 1422 1423 1423 1423 1424 1424 1424 1424 1425 1425
1421 1420 1419 1419 1419 1418 1418 1418 1418 1417 1417 1417 1417 1417 1417 1418 1418 1418 1418 1419 1419 1419 1419 1419 1419 1420 1420 1420 1420 1420 1420 1420 1420 1420 1420 1420 1421 1421 1421 1421 1422 1422 1422 1422
1418 1417 1417 1416 1416 1416 1416 1416 1415 1415 1415 1414 1414 1415 1415 1415 1415 1415 1415 1416 1416 1416 1416 1417 1417 1417 1417 1417 1418 1418 1418 1418 1418 1418 1418 1418 1418 1419 1419 1419 1419 1419 1419 1420